Temperature
34 33 33 33 33 33 33 33 33 33 35 34 33 32 32 32 31 31 30 29 28 27 26 25 25 24 23 22 21 21 20 20 20 20 19 19 19 19 19 19 19 19 19 19
33 33 34 35 35 34 34 33 33 34 35 35 33 33 33 33 32 31 30 29 29 28 27 26 25 24 23 22 21 21 21 20 20 20 20 20 19 19 19 19 19 19 19 19
32 33 35 35 34 34 34 34 33 33 34 34 33 32 32 32 32 32 31 30 29 28 27 26 25 25 24 22 22 21 21 21 21 20 20 20 20 20 20 20 20 19 19 19
33 34 35 34 34 34 33 34 34 34 33 32 33 30 31 31 32 32 32 31 30 29 28 27 26 25 24 23 22 22 21 21 21 20 20 20 20 20 20 20 20 19 19 19
33 34 34 34 34 35 34 35 34 34 33 32 32 31 30 31 31 32 32 32 31 30 29 28 27 25 25 24 23 22 22 21 21 21 20 20 20 20 20 20 20 20 19 19
34 35 35 35 35 35 35 34 34 34 33 31 32 31 30 30 31 32 33 32 31 31 30 28 27 26 25 24 23 22 22 22 21 21 21 21 20 20 20 20 20 20 20 19
33 34 35 35 34 35 34 33 31 30 30 30 31 31 31 32 33 34 33 32 31 31 30 29 28 26 25 25 24 23 22 22 22 22 21 21 21 21 20 20 20 20 20 20
32 32 34 35 34 33 34 33 31 30 29 30 30 30 32 34 34 34 33 32 31 31 30 29 28 27 26 25 24 24 23 22 22 22 22 21 21 21 20 20 20 20 20 20
32 33 35 35 35 34 33 33 33 32 31 30 31 31 33 34 34 34 33 32 31 31 30 29 28 27 26 25 24 24 23 22 22 22 22 22 21 21 21 20 20 20 20 20
33 32 34 35 35 35 34 34 33 32 30 30 30 31 31 32 33 33 33 33 32 31 30 29 28 27 26 25 24 24 23 23 22 22 22 21 22 21 21 20 20 20 20 20
34 32 33 34 33 33 34 33 33 33 32 31 30 30 32 31 32 33 33 32 32 31 30 29 28 28 26 26 25 24 23 23 23 22 22 21 21 21 21 21 20 20 20 20
33 33 32 33 35 35 34 34 33 32 31 31 31 30 33 32 33 33 33 32 31 31 30 29 28 27 26 26 25 24 23 23 23 22 22 22 21 21 21 21 20 20 20 20
31 31 30 31 33 34 33 34 34 34 32 31 30 31 32 32 32 32 32 31 30 30 30 29 28 27 27 26 25 24 24 23 23 22 22 22 21 21 21 20 20 20 20 20
30 30 30 30 31 33 32 33 33 33 31 31 31 31 31 32 31 31 31 30 30 29 29 28 27 27 26 26 25 25 24 24 23 23 22 22 22 21 21 20 20 20 20 19
30 29 30 31 32 32 32 32 33 33 32 31 31 31 31 31 31 30 30 29 29 29 28 28 27 26 26 25 25 24 24 24 23 23 22 22 22 21 21 20 20 20 20 19
29 28 29 29 31 31 32 32 33 33 32 32 32 31 32 31 30 30 29 29 28 27 27 26 26 25 25 25 24 24 24 23 23 22 22 22 21 21 21 21 20 20 20 19
28 27 27 28 30 30 30 32 32 32 33 32 31 31 31 31 30 29 28 28 28 27 26 25 25 24 24 24 24 24 23 23 22 22 22 21 21 21 21 20 20 20 20 19
26 26 26 27 28 27 30 32 33 32 32 32 32 31 31 30 29 28 28 27 27 26 25 25 24 24 23 23 23 23 23 22 22 22 21 21 21 20 20 20 20 20 19 19
27 26 26 26 26 27 29 31 31 31 30 31 31 31 30 29 28 27 27 27 26 25 25 24 24 24 23 23 23 22 22 22 21 21 21 21 20 20 20 20 19 19 19 19
27 26 25 25 25 26 28 30 31 31 29 30 29 29 29 28 27 27 26 26 25 24 24 23 23 23 23 22 22 22 22 21 21 21 21 20 20 20 20 19 19 19 18 18
25 25 25 25 25 26 28 29 30 28 27 27 27 27 27 26 26 25 25 24 24 23 23 23 22 22 22 21 21 21 21 21 21 20 20 20 20 19 19 19 19 18 18 18
25 25 24 25 24 25 27 28 26 25 25 25 25 25 25 25 25 24 24 23 23 22 22 22 22 21 21 21 21 20 20 20 20 20 19 19 19 19 19 19 18 18 18 17
25 25 25 24 24 24 24 24 24 24 24 24 24 24 24 24 24 23 23 22 22 21 21 21 21 21 20 20 20 20 20 20 19 19 19 19 19 19 18 18 18 17 17 17
24 25 24 23 23 24 23 23 23 23 23 23 23 23 23 23 23 23 22 22 21 21 21 20 20 20 20 20 19 19 19 19 19 18 18 18 18 18 18 18 17 17 17 16
22 23 23 22 22 22 22 22 22 22 22 22 22 22 22 22 22 22 21 21 21 20 20 20 19 19 19 19 19 18 18 18 18 18 18 18 18 18 17 17 17 17 17 16
21 21 21 21 22 22 21 21 21 21 21 21 21 21 21 21 21 21 21 20 20 19 19 19 19 18 18 18 18 18 18 17 17 17 17 17 17 17 17 17 16 16 16 16
Wind_Speed
14 13 11 10 11 12 11 7 4 4 6 5 7 10 12 15 13 13 13 13 13 13 13 12 12 12 12 10 9 7 6 6 4 3 3 3 3 2 2 2 3 3 2 2
14 15 14 12 10 10 11 8 4 5 5 4 4 6 9 13 14 14 14 14 14 14 13 13 12 12 12 11 10 8 7 7 6 4 3 3 3 2 3 2 4 3 2 1
19 15 13 13 12 11 11 7 5 5 5 5 5 5 8 11 12 13 13 13 14 15 15 15 14 13 13 12 11 10 8 7 6 6 4 2 2 1 2 3 3 3 2 2
17 15 14 13 12 12 9 6 7 8 7 6 9 5 7 10 11 13 13 13 14 14 15 15 15 14 14 13 12 10 9 8 7 6 5 4 3 3 2 2 3 3 2 2
16 14 15 15 13 12 10 6 8 10 10 9 9 5 5 7 10 12 13 13 14 15 15 15 15 14 14 14 13 11 10 9 8 6 5 4 4 3 2 3 4 3 3 2
18 15 16 16 14 12 11 9 9 11 11 11 8 5 6 9 12 12 12 12 12 14 15 15 15 14 13 14 14 14 12 10 9 8 7 6 4 3 2 3 3 3 3 3
19 18 16 15 14 13 13 11 8 9 9 8 7 7 6 10 12 12 11 12 12 13 14 14 15 15 13 14 14 13 13 11 10 9 8 7 5 5 4 4 4 3 3 3
18 18 17 15 15 13 14 14 11 10 8 7 9 7 6 9 9 10 10 11 13 12 13 13 14 14 14 14 13 13 13 11 10 9 8 7 7 5 4 5 3 3 2 3
15 17 16 17 15 16 15 14 14 13 12 9 6 7 7 8 9 9 10 11 13 13 13 14 14 15 14 13 12 12 13 11 10 9 8 7 6 6 5 4 5 3 2 3
17 13 14 15 14 17 18 15 11 12 9 9 8 7 4 5 7 8 9 10 12 12 12 13 14 14 14 13 12 11 12 11 9 9 9 8 7 6 4 3 4 3 3 2
19 16 14 15 16 17 17 16 13 10 10 9 7 5 4 6 7 8 7 8 9 12 12 12 13 13 13 13 14 12 12 11 10 9 8 6 7 7 6 5 4 4 3 3
15 14 14 16 15 16 16 17 16 11 9 9 8 5 5 5 6 8 8 8 7 8 10 10 12 12 12 12 13 13 12 11 10 9 8 7 6 6 6 6 5 5 5 5
8 10 13 15 15 16 16 16 17 15 11 10 10 7 3 1 2 4 6 8 7 7 9 10 11 11 10 10 10 11 11 11 11 10 9 8 7 7 6 6 5 5 5 5
5 11 15 16 12 12 14 17 16 15 11 10 11 9 5 4 3 4 4 5 7 7 7 8 8 9 9 8 8 9 10 10 10 9 9 8 8 7 7 6 5 5 5 5
7 12 16 17 16 14 14 16 17 17 15 12 10 8 6 6 4 4 5 6 7 7 7 7 7 6 7 8 8 8 8 7 8 9 9 8 7 6 5 5 5 4 5 5
7 10 13 17 18 17 17 16 17 17 15 13 12 7 3 6 6 3 3 5 6 7 6 6 6 7 6 6 7 7 7 6 6 7 7 6 7 6 6 5 4 4 4 4
7 8 11 15 17 17 20 17 16 15 14 13 11 7 3 4 5 3 2 5 5 6 6 6 5 5 4 4 5 6 6 6 6 6 6 6 6 5 5 5 5 5 4 4
9 8 8 13 14 19 15 14 14 13 11 10 7 5 3 3 4 5 3 3 5 6 6 6 5 6 4 3 4 4 5 5 5 5 5 5 5 5 5 5 5 5 4 4
10 8 9 11 16 17 14 11 12 12 9 6 5 4 3 3 4 3 3 3 5 5 5 5 5 5 5 4 4 3 4 4 5 5 4 4 4 5 5 5 4 4 4 4
13 10 11 12 15 16 11 8 9 9 8 3 1 1 2 2 3 2 4 5 5 5 5 5 5 5 4 3 3 3 3 3 3 3 3 3 4 4 5 5 4 4 4 4
14 14 15 16 15 12 8 6 6 9 4 3 3 3 2 2 1 3 4 5 5 5 6 6 5 4 4 4 2 3 3 2 1 1 2 3 3 3 3 3 3 3 4 4
12 13 14 14 16 11 4 2 1 1 5 5 5 5 5 5 5 4 4 5 5 5 4 5 4 4 3 4 3 4 3 2 1 1 1 1 2 2 2 2 2 3 4 5
10 7 7 6 6 1 4 4 5 4 4 5 5 5 4 3 2 3 3 4 5 5 4 3 4 3 3 3 3 3 3 2 1 1 1 1 2 2 2 3 3 3 3 4
7 5 5 4 3 1 2 5 5 5 5 5 4 4 2 1 0 1 3 4 4 4 3 3 3 3 2 2 2 3 2 2 1 1 1 1 2 2 2 1 1 2 2 3
7 6 5 4 3 1 0 2 3 3 4 4 3 3 3 2 1 1 2 3 3 3 2 2 2 2 2 2 2 2 2 2 1 1 1 2 2 2 2 1 0 1 1 2
8 6 5 4 2 2 2 1 1 2 3 4 3 4 4 3 3 1 2 3 3 2 2 2 2 2 1 1 2 2 1 0 0 1 2 2 2 2 2 2 0 3 1 2
Wind_Direction
227 232 235 229 222 226 241 240 195 181 176 178 161 161 171 172 176 173 173 174 176 176 175 169 167 162 157 150 151 155 154 149 157 159 159 162 155 173 167 164 140 144 176 160
233 235 242 242 236 238 252 258 225 190 193 194 180 170 181 179 182 179 177 178 178 175 172 169 171 169 164 158 157 157 165 161 167 165 165 171 168 177 164 148 133 151 161 180
228 232 235 242 243 241 250 252 250 233 224 237 209 193 192 190 187 180 181 180 179 179 175 173 176 175 170 164 166 172 170 165 172 170 174 182 160 191 160 151 144 153 165 166
236 234 238 239 240 246 246 245 246 255 246 246 241 223 200 194 193 187 183 183 182 179 176 177 178 179 174 168 170 165 166 167 171 176 183 191 177 183 183 164 149 159 174 167
233 229 236 239 241 248 253 250 253 258 257 256 246 246 204 182 208 195 186 187 184 180 176 176 176 174 175 172 170 167 166 169 170 182 187 191 198 195 186 161 146 161 169 171
244 234 230 236 238 243 254 251 253 257 261 258 264 252 211 193 205 194 185 184 183 178 173 172 172 168 175 173 170 169 166 170 173 181 188 191 207 204 205 181 168 182 175 169
241 239 231 229 234 232 237 239 239 240 242 254 270 257 212 202 195 181 180 178 178 178 169 170 169 169 175 174 173 169 165 171 177 183 190 191 201 209 217 213 195 198 190 167
229 232 227 225 229 235 233 237 241 244 242 229 232 240 213 190 170 159 162 174 172 177 166 167 167 169 174 175 171 167 165 171 179 185 188 192 194 208 216 213 218 204 193 172
234 233 221 219 220 229 236 237 248 257 258 263 235 228 203 170 165 164 163 171 176 175 169 166 167 168 171 171 169 167 162 170 180 184 182 190 190 209 222 202 205 213 197 189
249 252 234 217 216 226 236 243 241 250 257 258 250 249 207 193 182 178 173 171 169 168 171 169 166 168 170 168 164 168 162 172 180 184 188 190 191 203 219 213 201 198 200 204
243 251 246 225 218 224 224 235 243 250 258 257 254 248 219 188 186 173 172 161 167 167 172 170 163 165 163 166 166 167 165 170 177 185 186 195 184 192 198 201 202 195 197 199
238 244 246 236 226 231 233 232 237 243 253 261 265 248 193 186 194 164 162 153 148 160 160 158 158 156 162 166 169 168 168 174 179 181 179 189 186 187 195 199 200 198 202 202
248 249 246 241 229 222 232 238 239 243 244 245 253 241 140 146 112 127 145 141 141 153 151 152 151 153 159 164 166 165 171 177 179 178 180 185 188 190 197 202 201 200 201 203
274 249 248 245 243 220 225 236 242 245 243 240 239 241 186 188 167 133 127 136 141 141 135 141 139 147 154 162 163 165 174 176 178 177 182 183 187 190 193 196 195 197 199 206
257 247 253 261 264 259 240 231 235 243 246 249 245 235 213 177 155 140 142 146 139 128 128 130 135 142 152 154 158 165 169 171 174 174 177 179 180 183 186 188 197 194 198 209
256 262 258 257 256 258 258 241 233 238 241 243 248 251 200 148 132 130 140 151 133 130 129 123 121 135 139 146 154 157 165 167 166 172 175 170 173 179 183 184 194 192 193 204
254 263 261 254 250 252 250 249 243 236 235 238 240 242 208 137 132 137 154 145 140 133 126 118 119 121 133 150 154 158 164 168 168 168 170 169 176 181 184 188 191 198 198 206
248 256 254 256 258 250 250 257 262 256 246 235 228 225 204 130 125 118 112 122 138 138 132 129 135 133 139 140 137 152 161 154 156 162 170 175 181 186 187 192 196 202 201 206
234 237 248 251 250 251 252 253 255 254 254 259 244 227 178 166 142 121 133 137 129 129 125 126 137 138 138 143 126 118 138 149 158 168 181 184 186 188 192 199 204 200 202 208
226 226 238 244 248 247 250 248 260 250 242 269 291 268 203 193 216 155 122 123 127 120 118 113 117 114 110 105 126 130 142 145 158 170 178 175 186 201 202 198 206 205 205 212
218 220 228 241 247 251 278 274 251 237 230 40 69 52 34 67 98 103 100 99 101 109 112 110 104 100 96 88 94 116 118 127 119 129 177 183 194 209 205 187 198 204 209 211
230 226 225 236 244 244 313 294 251 51 61 63 62 59 54 56 78 97 100 105 109 99 96 109 102 96 94 97 107 113 111 105 99 103 169 173 186 224 197 174 203 212 214 215
240 239 231 235 244 37 44 63 59 65 74 60 50 48 53 51 77 100 112 113 118 116 114 106 104 102 93 91 105 124 115 110 115 125 160 172 184 216 209 197 213 219 217 222
250 251 233 224 220 267 92 76 59 40 50 55 46 32 10 341 327 126 133 132 131 125 124 119 118 116 97 80 77 104 108 100 103 148 185 191 189 199 202 190 206 216 224 237
284 277 257 225 195 209 7 58 69 46 29 28 31 3 328 336 325 256 158 147 143 134 135 132 132 120 95 76 73 80 92 107 131 166 232 227 222 207 186 173 269 221 239 234
292 277 265 262 246 225 154 90 67 49 27 28 28 6 345 348 338 330 122 112 112 123 126 126 119 113 101 86 80 66 58 94 173 253 263 264 240 217 194 173 154 18 244 216
Height
1463 1465 1467 1465 1461 1463 1462 1466 1469 1465 1458 1461 1468 1473 1475 1478 1483 1487 1491 1496 1500 1504 1507 1510 1513 1516 1518 1519 1521 1523 1524 1526 1527 1528 1529 1530 1531 1532 1533 1534 1534 1534 1535 1536
1464 1464 1457 1453 1453 1457 1459 1464 1466 1462 1456 1460 1467 1470 1470 1473 1477 1482 1486 1491 1496 1500 1504 1508 1511 1514 1516 1518 1520 1522 1523 1525 1526 1528 1530 1531 1532 1532 1533 1534 1534 1534 1535 1536
1462 1457 1453 1453 1455 1458 1459 1462 1465 1465 1459 1459 1466 1475 1473 1471 1473 1478 1482 1486 1491 1496 1500 1504 1508 1511 1514 1516 1518 1520 1522 1524 1526 1528 1529 1531 1532 1532 1533 1534 1534 1534 1535 1536
1454 1451 1451 1453 1455 1455 1463 1455 1457 1461 1467 1473 1469 1488 1477 1472 1471 1473 1477 1482 1486 1491 1495 1500 1504 1508 1511 1513 1516 1518 1520 1522 1524 1527 1528 1530 1531 1532 1533 1533 1534 1534 1535 1536
1451 1449 1452 1454 1452 1452 1454 1451 1454 1457 1463 1470 1469 1480 1481 1470 1475 1471 1472 1477 1481 1486 1491 1496 1500 1505 1508 1511 1514 1516 1518 1521 1523 1525 1527 1528 1530 1531 1532 1533 1534 1534 1534 1535
1444 1443 1445 1447 1446 1448 1448 1452 1455 1458 1464 1482 1473 1479 1486 1472 1469 1466 1468 1472 1477 1481 1487 1492 1497 1502 1506 1509 1512 1514 1516 1519 1521 1523 1525 1527 1528 1530 1531 1532 1533 1533 1534 1534
1450 1443 1440 1441 1447 1447 1450 1463 1481 1489 1489 1490 1472 1476 1474 1457 1454 1457 1463 1468 1475 1479 1484 1489 1494 1498 1502 1506 1509 1512 1514 1516 1519 1521 1523 1525 1527 1528 1530 1531 1532 1533 1533 1533
1458 1455 1440 1438 1444 1450 1450 1457 1480 1495 1496 1488 1476 1477 1461 1448 1449 1454 1459 1465 1471 1476 1480 1485 1490 1495 1499 1503 1507 1510 1512 1514 1517 1519 1521 1523 1525 1527 1528 1529 1530 1531 1532 1532
1448 1449 1432 1434 1437 1443 1452 1454 1451 1465 1473 1482 1477 1465 1451 1445 1448 1453 1457 1463 1468 1472 1477 1482 1487 1492 1497 1501 1504 1507 1510 1513 1515 1517 1519 1521 1523 1525 1526 1527 1528 1529 1530 1531
1436 1445 1433 1430 1435 1437 1440 1443 1453 1464 1481 1491 1480 1472 1466 1456 1453 1452 1455 1459 1464 1469 1474 1479 1484 1489 1494 1498 1502 1505 1508 1511 1513 1515 1517 1519 1521 1523 1524 1525 1526 1527 1528 1529
1432 1443 1439 1433 1438 1442 1442 1446 1450 1454 1459 1479 1489 1481 1451 1452 1450 1451 1454 1458 1462 1467 1473 1476 1481 1486 1491 1495 1499 1502 1506 1508 1510 1513 1515 1518 1519 1520 1521 1522 1524 1525 1525 1526
1430 1437 1444 1435 1427 1428 1433 1439 1445 1461 1465 1462 1473 1473 1445 1447 1446 1448 1452 1457 1462 1466 1470 1475 1479 1483 1488 1492 1497 1500 1503 1505 1507 1510 1512 1515 1516 1518 1519 1520 1521 1522 1522 1523
1434 1441 1454 1451 1440 1432 1435 1434 1436 1441 1450 1461 1473 1469 1445 1446 1448 1450 1453 1458 1462 1466 1470 1474 1478 1482 1486 1491 1494 1497 1500 1503 1505 1507 1510 1512 1513 1515 1516 1517 1518 1519 1520 1521
1437 1442 1449 1455 1444 1434 1439 1437 1435 1441 1454 1460 1461 1458 1451 1450 1451 1453 1456 1459 1462 1466 1469 1473 1476 1481 1485 1489 1492 1495 1498 1501 1503 1505 1507 1509 1510 1512 1513 1514 1515 1516 1517 1518
1438 1444 1442 1437 1432 1430 1433 1435 1435 1439 1442 1451 1452 1452 1450 1449 1451 1455 1459 1461 1463 1467 1470 1472 1476 1480 1483 1486 1490 1493 1496 1499 1501 1503 1504 1505 1507 1509 1510 1511 1512 1513 1514 1515
1441 1445 1444 1444 1434 1433 1434 1431 1432 1435 1437 1440 1444 1447 1443 1446 1450 1455 1458 1462 1464 1467 1470 1473 1476 1479 1482 1485 1488 1491 1494 1496 1499 1500 1502 1503 1504 1505 1507 1508 1509 1510 1511 1512
1444 1450 1453 1450 1439 1438 1443 1432 1431 1432 1432 1437 1446 1446 1443 1447 1451 1457 1459 1461 1464 1467 1471 1474 1477 1479 1482 1484 1486 1489 1492 1495 1497 1498 1500 1501 1501 1503 1504 1506 1506 1507 1508 1509
1448 1452 1453 1452 1450 1461 1438 1424 1425 1428 1429 1431 1436 1440 1443 1448 1454 1456 1459 1462 1465 1468 1470 1474 1477 1479 1482 1484 1486 1488 1490 1493 1495 1496 1498 1499 1500 1501 1502 1503 1503 1504 1505 1506
1444 1450 1455 1455 1457 1450 1435 1428 1428 1432 1435 1433 1436 1440 1445 1449 1452 1457 1461 1463 1465 1468 1470 1473 1476 1479 1481 1483 1484 1486 1488 1490 1492 1493 1495 1496 1497 1497 1498 1499 1500 1501 1502 1502
1441 1446 1454 1454 1460 1458 1440 1428 1427 1431 1441 1437 1440 1443 1446 1448 1454 1459 1461 1463 1466 1468 1470 1473 1475 1477 1479 1481 1483 1484 1486 1488 1489 1491 1492 1493 1494 1495 1495 1496 1497 1498 1498 1499
1445 1448 1452 1453 1454 1445 1434 1429 1431 1446 1449 1442 1444 1447 1449 1451 1455 1460 1462 1463 1466 1468 1470 1472 1474 1476 1478 1480 1482 1483 1485 1486 1487 1488 1490 1491 1492 1492 1493 1493 1494 1495 1495 1495
1441 1444 1447 1449 1454 1451 1436 1433 1440 1446 1444 1446 1447 1450 1452 1454 1457 1460 1462 1464 1466 1468 1470 1472 1474 1476 1477 1479 1480 1481 1483 1484 1485 1486 1487 1488 1489 1490 1490 1490 1491 1491 1492 1493
1436 1437 1438 1444 1447 1443 1442 1443 1445 1446 1447 1449 1450 1452 1454 1456 1458 1460 1463 1465 1467 1468 1471 1472 1474 1475 1477 1478 1480 1480 1481 1482 1483 1484 1484 1485 1486 1487 1488 1488 1488 1489 1489 1490
1434 1434 1436 1441 1442 1443 1444 1445 1447 1448 1449 1451 1453 1454 1455 1457 1459 1461 1463 1464 1467 1468 1470 1472 1473 1474 1476 1477 1478 1479 1479 1480 1481 1482 1482 1483 1483 1484 1485 1486 1486 1486 1486 1487
1438 1436 1437 1440 1443 1446 1446 1448 1450 1451 1451 1452 1454 1456 1457 1457 1458 1460 1462 1463 1465 1467 1468 1470 1471 1472 1474 1475 1476 1477 1478 1478 1479 1479 1480 1481 1481 1482 1482 1483 1483 1482 1483 1483
1442 1441 1442 1443 1444 1445 1449 1450 1451 1452 1453 1454 1455 1457 1457 1458 1458 1459 1460 1462 1464 1465 1466 1468 1470 1471 1472 1474 1474 1475 1476 1477 1477 1477 1478 1479 1479 1479 1479 1479 1479 1479 1479 1479